Flag for Hungary Weather past 2 weeks in Pécs, Hungary

Now
78 °F

Overcast.


Feels Like: 79 °F
Forecast: 59 / 73 °F
Wind: 3 mph from Northeast

Location: Pecs / Pogany

Current Time: Aug 20, 2014 at 4:56:25 PM

Latest Report: Aug 20, 2014 at 4:00 PM


Visibility: 38 mi

Pressure: 29.93 "Hg

Humidity: 59%

Dew point: 62 °F

Location of PécsLocation

Historic Weather in Pécs — Graph

°F

Pécs temperature yesterday

Maximum temperature yesterday: 80 °F (at 2:00 PM)
Minimum temperature yesterday: 60 °F (at 6:00 AM)
Average temperature yesterday: 71 °F

Past Weeks' High & Low Weather Summary

 TemperatureHumidityPressure
High85 °F (Aug 13, 7:00 PM)97% (Aug 8, 6:00 AM)30.07 "Hg (Aug 8, 6:00 AM)
Low54 °F (Aug 18, 6:00 AM)36% (Aug 18, 3:00 PM)29.70 "Hg (Aug 13, 11:00 PM)
Average70 °F69%29.93 "Hg
* Reported Aug 5 3:00 PM — Aug 20 3:00 PM, Pécs, Weather by CustomWeather, © 2014

Note: Actual official high and low records may vary slightly from our data, if they occured in-between our weather recording intervals... More about our weather records

Advertising

Pécs weather history for previous 24 hours

 ConditionsComfort  
Time TempWeatherWind HumidityBarometerVisibility
3:00 PM
Aug 20
79 °FOvercast.3 mph57%29.93 "Hg37 mi
2:00 PM77 °FOvercast.2 mph57%29.93 "Hg37 mi
1:00 PM77 °FPartly sunny.2 mph57%29.93 "Hg37 mi
12:00 PM78 °FPartly sunny.2 mph51%29.93 "Hg37 mi
11:00 AM76 °FPartly sunny.2 mph51%29.94 "Hg37 mi
10:00 AM74 °FOvercast.2 mph53%29.94 "Hg31 mi
9:00 AM72 °FOvercast.1 mph58%29.94 "Hg43 mi
8:00 AM68 °FOvercast.1 mph65%29.94 "Hg47 mi
7:00 AM64 °FPartly sunny.2 mph72%29.94 "Hg47 mi
6:00 AM63 °FPartly sunny.2 mph73%29.93 "Hg47 mi
5:00 AM64 °FPassing clouds.2 mph70%29.93 "Hg47 mi
4:00 AM64 °FPassing clouds.2 mph70%29.93 "Hg47 mi
3:00 AM65 °FPassing clouds.No wind67%29.93 "Hg47 mi
2:00 AM66 °FPassing clouds.No wind65%29.94 "Hg47 mi
1:00 AM67 °FOvercast.1 mph66%29.95 "Hg47 mi
12:00 AM68 °FOvercast.No wind64%29.94 "Hg47 mi
11:00 PM
Aug 19
68 °FOvercast.No wind60%29.95 "Hg47 mi
10:00 PM71 °FOvercast.2 mph54%29.94 "Hg47 mi
9:00 PM73 °FPassing clouds.2 mph49%29.93 "Hg47 mi
8:00 PM74 °FPassing clouds.1 mph47%29.92 "Hg47 mi
7:00 PM77 °FPartly sunny.2 mph43%29.91 "Hg47 mi
6:00 PM78 °FOvercast.3 mph43%29.91 "Hg47 mi
5:00 PM79 °FScattered clouds.6 mph38%29.91 "Hg47 mi
4:00 PM80 °FPartly sunny.7 mph38%29.90 "Hg47 mi
Weather by CustomWeather, © 2014

See weather overviewHow to use our weather pages